ELY5183 LLBG-LATI

Flight info

Callsign ELY5183
Flight time N/A
Altitude 38000
Route SUVAS L53 ANIDE DCT UVRIT DCT KUGGI DCT DIMIS DCT ADDER DCT ELBAK
Aircraft B738/M-SDE2E3FGHIRWXY/LB1

Departure

Time N/A
Airport Ben Gurion International Airport (LLBG)

Arrival

Time 2026-05-06 14:51
Airport Tirana International Airport Mother Teresa (LATI)
Time Latitude Longitude Altitude Speed Heading
2026-05-06 14:06 38.48778 22.62555 38055 ft 415 kts 320°
2026-05-06 14:06 38.53294 22.57973 38067 ft 414 kts 319°
2026-05-06 14:07 38.57802 22.53358 38052 ft 415 kts 319°
2026-05-06 14:07 38.62317 22.48719 38051 ft 415 kts 319°
2026-05-06 14:08 38.66787 22.44117 38059 ft 415 kts 319°
2026-05-06 14:08 38.71272 22.39493 38047 ft 415 kts 319°
2026-05-06 14:09 38.75777 22.34840 38057 ft 415 kts 319°
2026-05-06 14:09 38.80253 22.30211 38053 ft 415 kts 319°
2026-05-06 14:10 38.84757 22.25543 38059 ft 415 kts 319°
2026-05-06 14:10 38.89243 22.20887 38049 ft 416 kts 319°
2026-05-06 14:11 38.93739 22.16213 38047 ft 417 kts 319°
2026-05-06 14:11 38.98255 22.11511 38049 ft 417 kts 319°
2026-05-06 14:12 39.02774 22.06797 38056 ft 417 kts 319°
2026-05-06 14:12 39.07262 22.02108 38056 ft 418 kts 319°
2026-05-06 14:13 39.11792 21.97366 38047 ft 418 kts 319°
2026-05-06 14:13 39.16310 21.92629 38045 ft 418 kts 319°
2026-05-06 14:14 39.20794 21.87920 38051 ft 418 kts 319°
2026-05-06 14:14 39.25304 21.83175 38046 ft 418 kts 319°
2026-05-06 14:15 39.29791 21.78447 38051 ft 418 kts 319°
2026-05-06 14:15 39.34304 21.73682 38048 ft 418 kts 318°
2026-05-06 14:16 39.38106 21.69662 38054 ft 418 kts 318°
2026-05-06 14:16 39.42584 21.64920 38058 ft 418 kts 318°
2026-05-06 14:17 39.47094 21.60136 38045 ft 419 kts 318°
2026-05-06 14:17 39.51601 21.55347 38057 ft 419 kts 318°
2026-05-06 14:18 39.56108 21.50548 38059 ft 419 kts 318°
2026-05-06 14:18 39.59402 21.47037 38050 ft 419 kts 318°
2026-05-06 14:19 39.63898 21.42237 38064 ft 418 kts 318°
2026-05-06 14:19 39.68382 21.37442 38069 ft 417 kts 318°
2026-05-06 14:20 39.72861 21.32642 38078 ft 416 kts 318°
2026-05-06 14:20 39.77329 21.27847 38073 ft 416 kts 317°
2026-05-06 14:21 39.81762 21.23080 38066 ft 415 kts 317°
2026-05-06 14:21 39.86212 21.18287 38080 ft 415 kts 317°
2026-05-06 14:22 39.90667 21.13480 38088 ft 416 kts 317°
2026-05-06 14:22 39.95126 21.08660 38082 ft 416 kts 317°
2026-05-06 14:23 39.97357 21.06245 37920 ft 419 kts 317°
2026-05-06 14:23 39.99617 21.03796 37631 ft 422 kts 317°
2026-05-06 14:23 40.01870 21.01353 37357 ft 420 kts 317°
2026-05-06 14:23 40.04089 20.98947 37083 ft 417 kts 317°
2026-05-06 14:24 40.06323 20.96522 36821 ft 416 kts 317°
2026-05-06 14:24 40.08550 20.94102 36563 ft 416 kts 317°
2026-05-06 14:24 40.10777 20.91686 36306 ft 415 kts 318°
2026-05-06 14:24 40.13026 20.89415 35850 ft 413 kts 320°
2026-05-06 14:25 40.15356 20.87203 35214 ft 414 kts 321°
2026-05-06 14:25 40.17718 20.85009 34525 ft 418 kts 321°
2026-05-06 14:25 40.20100 20.82801 33817 ft 421 kts 321°
2026-05-06 14:25 40.22488 20.80573 33080 ft 423 kts 321°
2026-05-06 14:26 40.24873 20.78335 32557 ft 419 kts 321°
2026-05-06 14:26 40.27230 20.76110 32106 ft 415 kts 321°
2026-05-06 14:26 40.29560 20.73901 31637 ft 411 kts 321°
2026-05-06 14:26 40.31869 20.71704 31145 ft 409 kts 321°
2026-05-06 14:27 40.34139 20.69540 30645 ft 407 kts 321°
2026-05-06 14:27 40.36434 20.67348 30180 ft 405 kts 321°
2026-05-06 14:27 40.38706 20.65176 29615 ft 403 kts 321°
2026-05-06 14:27 40.40966 20.63014 29036 ft 401 kts 321°
2026-05-06 14:28 40.43217 20.60858 28471 ft 399 kts 321°
2026-05-06 14:28 40.45458 20.58711 27917 ft 397 kts 321°
2026-05-06 14:28 40.47685 20.56576 27373 ft 395 kts 321°
2026-05-06 14:28 40.49871 20.54478 26852 ft 393 kts 321°
2026-05-06 14:29 40.52072 20.52364 26387 ft 390 kts 321°
2026-05-06 14:29 40.54266 20.50256 25920 ft 386 kts 321°
2026-05-06 14:29 40.56431 20.48173 25486 ft 383 kts 321°
2026-05-06 14:29 40.58554 20.46129 25044 ft 380 kts 321°
2026-05-06 14:30 40.60685 20.44076 24635 ft 377 kts 321°
2026-05-06 14:30 40.62788 20.42048 24188 ft 374 kts 321°
2026-05-06 14:30 40.64887 20.40023 23775 ft 371 kts 321°
2026-05-06 14:30 40.66971 20.38010 23269 ft 370 kts 321°
2026-05-06 14:31 40.69042 20.36007 22797 ft 367 kts 321°
2026-05-06 14:31 40.71063 20.34053 22388 ft 363 kts 321°
2026-05-06 14:31 40.73091 20.32090 21972 ft 359 kts 321°
2026-05-06 14:31 40.75100 20.30144 21545 ft 355 kts 321°
2026-05-06 14:32 40.77080 20.28224 21150 ft 352 kts 321°
2026-05-06 14:32 40.79028 20.26334 20745 ft 349 kts 321°
2026-05-06 14:32 40.80977 20.24440 20342 ft 347 kts 321°
2026-05-06 14:32 40.82262 20.23191 20080 ft 346 kts 321°
2026-05-06 14:33 40.84199 20.21308 19684 ft 344 kts 321°
2026-05-06 14:33 40.86123 20.19435 19284 ft 343 kts 321°
2026-05-06 14:33 40.88689 20.16935 18763 ft 342 kts 321°
2026-05-06 14:33 40.89954 20.15702 18506 ft 341 kts 321°
2026-05-06 14:34 40.91870 20.13834 18053 ft 341 kts 321°
2026-05-06 14:34 40.93775 20.11975 17635 ft 339 kts 321°
2026-05-06 14:34 40.95646 20.10148 17228 ft 338 kts 321°
2026-05-06 14:34 40.97535 20.08302 16832 ft 336 kts 321°
2026-05-06 14:35 40.99411 20.06468 16465 ft 335 kts 321°
2026-05-06 14:35 41.01286 20.04632 16053 ft 335 kts 321°
2026-05-06 14:35 41.03155 20.02802 15677 ft 333 kts 321°
2026-05-06 14:35 41.05016 20.00978 15279 ft 333 kts 321°
2026-05-06 14:36 41.06880 19.99150 14900 ft 331 kts 321°
2026-05-06 14:36 41.08725 19.97339 14544 ft 330 kts 321°
2026-05-06 14:36 41.10573 19.95523 14145 ft 330 kts 321°
2026-05-06 14:36 41.12420 19.93707 13757 ft 330 kts 322°
2026-05-06 14:37 41.14261 19.91897 13334 ft 329 kts 322°
2026-05-06 14:37 41.16065 19.90122 12950 ft 327 kts 322°
2026-05-06 14:37 41.17888 19.88326 12553 ft 324 kts 321°
2026-05-06 14:37 41.19698 19.86542 12185 ft 322 kts 321°
2026-05-06 14:38 41.21491 19.84773 11821 ft 320 kts 321°
2026-05-06 14:38 41.23275 19.83012 11459 ft 318 kts 321°
2026-05-06 14:38 41.25053 19.81256 11096 ft 316 kts 321°
2026-05-06 14:38 41.26817 19.79512 10731 ft 315 kts 321°
2026-05-06 14:39 41.28559 19.77789 10452 ft 313 kts 321°
2026-05-06 14:39 41.30288 19.76078 10311 ft 305 kts 321°
2026-05-06 14:39 41.31969 19.74413 10164 ft 297 kts 321°
2026-05-06 14:39 41.33607 19.72792 9991 ft 291 kts 321°
2026-05-06 14:40 41.35227 19.71185 9637 ft 290 kts 321°
2026-05-06 14:40 41.36843 19.69580 9302 ft 289 kts 321°
2026-05-06 14:40 41.38452 19.67982 8983 ft 288 kts 321°
2026-05-06 14:40 41.40052 19.66391 8681 ft 286 kts 321°
2026-05-06 14:41 41.41647 19.64804 8366 ft 285 kts 321°
2026-05-06 14:41 41.43219 19.63241 8048 ft 285 kts 321°
2026-05-06 14:41 41.44820 19.61647 7703 ft 287 kts 321°
2026-05-06 14:41 41.46413 19.60059 7328 ft 284 kts 321°
2026-05-06 14:42 41.47986 19.58491 7039 ft 277 kts 321°
2026-05-06 14:42 41.49511 19.56972 6748 ft 270 kts 321°
2026-05-06 14:42 41.51008 19.55552 6459 ft 265 kts 329°
2026-05-06 14:42 41.52771 19.54889 6129 ft 264 kts 352°
2026-05-06 14:43 41.54583 19.54664 5860 ft 259 kts 353°
2026-05-06 14:43 41.56373 19.54432 5564 ft 257 kts 353°
2026-05-06 14:43 41.58152 19.54195 5238 ft 255 kts 353°
2026-05-06 14:43 41.59907 19.53959 4923 ft 251 kts 353°
2026-05-06 14:44 41.61636 19.54018 4653 ft 249 kts 18°
2026-05-06 14:44 41.63058 19.55150 4555 ft 236 kts 49°
2026-05-06 14:44 41.63871 19.56947 4439 ft 218 kts 75°
2026-05-06 14:45 41.64291 19.60786 4183 ft 206 kts 88°
2026-05-06 14:45 41.64418 19.62664 4054 ft 204 kts 88°
2026-05-06 14:45 41.64551 19.64547 3998 ft 202 kts 87°
2026-05-06 14:45 41.64669 19.66383 4008 ft 192 kts 94°
2026-05-06 14:46 41.64272 19.67983 4013 ft 180 kts 130°
2026-05-06 14:46 41.63298 19.69009 3987 ft 178 kts 161°
2026-05-06 14:46 41.62083 19.69267 3901 ft 178 kts 175°
2026-05-06 14:46 41.60856 19.69452 3675 ft 178 kts 174°
2026-05-06 14:47 41.59633 19.69630 3432 ft 173 kts 174°
2026-05-06 14:47 41.58481 19.69788 3222 ft 160 kts 174°
2026-05-06 14:47 41.57384 19.69935 3018 ft 158 kts 173°
2026-05-06 14:47 41.56272 19.70084 2820 ft 164 kts 173°
2026-05-06 14:48 41.55129 19.70236 2556 ft 164 kts 173°
2026-05-06 14:48 41.54015 19.70385 2347 ft 159 kts 173°
2026-05-06 14:48 41.52917 19.70530 2156 ft 160 kts 174°
2026-05-06 14:48 41.51788 19.70682 1968 ft 163 kts 174°
2026-05-06 14:49 41.50696 19.70828 1699 ft 156 kts 175°
2026-05-06 14:49 41.49640 19.70968 1482 ft 151 kts 175°
2026-05-06 14:49 41.48589 19.71110 1285 ft 153 kts 176°
2026-05-06 14:49 41.47516 19.71250 1080 ft 156 kts 177°
2026-05-06 14:50 41.46431 19.71395 865 ft 156 kts 176°
2026-05-06 14:50 41.45358 19.71538 671 ft 155 kts 175°
2026-05-06 14:50 41.44282 19.71680 467 ft 156 kts 176°
2026-05-06 14:50 41.43206 19.71826 239 ft 154 kts 175°
2026-05-06 14:51 41.42146 19.71968 126 ft 146 kts 175°
2026-05-06 14:51 41.41266 19.72083 127 ft 108 kts 174°
2026-05-06 14:51 41.40667 19.72164 133 ft 65 kts 174°
2026-05-06 14:51 41.40366 19.72203 129 ft 22 kts 174°
2026-05-06 14:52 41.40263 19.72193 131 ft 10 kts 217°
2026-05-06 14:52 41.40242 19.72107 131 ft 10 kts 263°
2026-05-06 14:52 41.40236 19.71993 129 ft 15 kts 280°
2026-05-06 14:52 41.40324 19.71877 127 ft 21 kts 322°
2026-05-06 14:53 41.40467 19.71789 130 ft 27 kts 355°
2026-05-06 14:53 41.40700 19.71759 129 ft 40 kts 353°
2026-05-06 14:53 41.41011 19.71696 126 ft 50 kts 354°
2026-05-06 14:53 41.41362 19.71651 128 ft 49 kts 354°
2026-05-06 14:54 41.41690 19.71606 128 ft 45 kts 355°
2026-05-06 14:54 41.41985 19.71569 128 ft 35 kts 354°
2026-05-06 14:54 41.42151 19.71547 128 ft 12 kts 354°
2026-05-06 14:54 41.42185 19.71508 129 ft 7 kts 269°
2026-05-06 14:55 41.42183 19.71485 129 ft 2 kts 264°
2026-05-06 14:55 41.42183 19.71484 129 ft 0 kts 264°